[[{"header":{"parameterUnit":"m.s-1","parameterCategory":1,"la1":30.2992,"la2":30.254,"lo1":-89.0895,"lo2":-89.0443,"dy":0.0025,"dx":0.0025,"nx":19,"ny":19,"refTime":"2026-05-24T09:00:00:Z","depth":0,"parameterNumber":2,"parameterNumberName":"U-component_of_WINDS"},"data":[0,0,0,-3.7808,-3.7809,-3.7847,-3.7847,-3.7899,-3.79,0,0,0,0,0,0,0,0,0,0,0,-3.78,-3.78,-3.7808,-3.7809,-3.7847,-3.7847,-3.7899,-3.79,0,0,0,0,0,0,0,0,0,0,0,-3.78,-3.78,-3.7801,-3.781,-3.7847,-3.7847,-3.7899,-3.7869,0,0,0,0,0,0,0,0,0,0,-3.7832,-3.7827,-3.78,-3.7801,-3.781,-3.7847,-3.7847,-3.7868,-3.7871,-3.7884,0,-3.7897,0,-3.7899,-3.7904,-3.7904,0,0,0,-3.7807,-3.7824,-3.7832,-3.7801,-3.781,-3.7847,-3.7829,-3.787,-3.7873,-3.7889,-3.7897,-3.7899,-3.79,-3.7904,-3.7904,-3.7988,-3.7988,0,0,-3.7805,-3.7808,-3.7829,-3.7834,-3.7829,-3.7828,-3.783,-3.7872,-3.7881,-3.7898,-3.79,-3.7901,-3.7904,-3.7905,-3.7987,-3.7988,0,0,0,-3.7801,-3.7807,-3.7813,-3.7832,-3.7839,-3.7829,-3.7832,-3.7879,-3.7881,-3.7901,-3.7902,-3.7905,-3.7905,-3.7987,-3.7987,-3.8013,0,0,0,-3.7799,-3.7804,-3.7813,-3.7815,-3.7838,-3.786,-3.7839,-3.7879,-3.7883,-3.7901,-3.7905,-3.7906,-3.7986,-3.7987,-3.8011,-3.8025,0,0,0,-3.7797,-3.7804,-3.781,-3.7815,-3.7831,-3.7859,-3.7863,-3.7879,-3.7884,-3.7904,-3.7906,-3.7986,-3.7987,-3.801,-3.8022,-3.8047,0,0,0,-3.7794,-3.7832,-3.781,-3.7853,-3.7831,-3.7875,-3.7863,-3.7896,-3.7916,-3.7905,-3.7986,-3.7987,-3.8009,-3.802,-3.8045,-3.8068,-3.8078,0,0,-3.7844,-3.7839,-3.7864,-3.7845,-3.7894,-3.7869,-3.7922,-3.7938,-3.7938,-3.7971,-3.7973,-3.8012,-3.8022,-3.8047,-3.8134,-3.8142,0,0,0,-3.788,-3.7898,-3.7911,-3.7931,-3.7944,-3.7957,-3.7965,-3.7971,-3.8,-3.7955,-3.8028,-3.8034,-3.8049,-3.8059,-3.8066,-3.8078,-3.7993,-3.7993,-3.7992,-3.7953,-3.7951,-3.7993,-3.7995,-3.8015,-3.8023,-3.8039,-3.8049,-3.8041,-3.8058,-3.8067,-3.8121,-3.8133,-3.8138,-3.8151,-3.808,-3.808,-3.808,-3.808,-3.8025,-3.805,-3.8039,-3.8075,-3.8073,-3.8103,-3.8114,-3.8107,-3.8135,-3.8113,-3.8126,-3.8101,-3.8147,-3.8158,-3.8082,-3.8082,-3.8082,-3.8082,-3.8081,-3.8071,-3.8083,-3.809,-3.8119,-3.8142,-3.8144,-3.8172,-3.8169,-3.8167,-3.8179,-3.8189,-3.8188,-3.8187,-3.8184,-3.8184,-3.8185,-3.8185,-3.8185,-3.8185,-3.8116,-3.8124,-3.8147,-3.8166,-3.8179,-3.8195,-3.8205,-3.8218,-3.8231,-3.8227,-3.8227,-3.8217,-3.8153,-3.8136,-3.8188,-3.8187,-3.8187,-3.8187,-3.8186,-3.8187,-3.8171,-3.8207,-3.822,-3.8242,-3.8265,-3.8262,-3.8288,-3.8298,-3.8312,-3.83,-3.8254,-3.8247,-3.8242,-3.8228,-3.8301,-3.8301,-3.8301,-3.8301,-3.8226,-3.8223,-3.826,-3.8281,-3.8301,-3.8302,-3.8343,-3.8352,-3.8359,-3.8365,-3.8355,-3.8336,-3.8331,-3.8328,-3.8321,-3.8308,-3.8399,-3.8399,-3.8399,-3.8269,-3.8269,-3.8304,-3.831,-3.8328,-3.8343,-3.8382,-3.8406,-3.8411,-3.8403,-3.837,-3.8366,-3.8336,-3.8327,-3.8317,-3.8306,-3.8282,0,0]},{"header":{"parameterUnit":"m.s-1","parameterCategory":1,"la1":30.2992,"la2":30.254,"lo1":-89.0895,"lo2":-89.0443,"dy":0.0025,"dx":0.0025,"nx":19,"ny":19,"refTime":"2026-05-24T09:00:00:Z","depth":0,"parameterNumber":3,"parameterNumberName":"V-component_of_WINDS"},"data":[0,0,0,6.5293,6.5295,6.5416,6.5416,6.5576,6.5578,0,0,0,0,0,0,0,0,0,0,0,6.5263,6.5264,6.5293,6.5296,6.5416,6.5416,6.5576,6.5578,0,0,0,0,0,0,0,0,0,0,0,6.5262,6.5264,6.5265,6.5296,6.5415,6.5416,6.5575,6.5482,0,0,0,0,0,0,0,0,0,0,6.5364,6.5342,6.5263,6.5266,6.5297,6.5415,6.5416,6.5477,6.5488,6.5525,0,6.5561,0,6.5572,6.5589,6.5589,0,0,0,6.5291,6.5334,6.5362,6.5266,6.5298,6.5415,6.536,6.5483,6.5495,6.5539,6.5564,6.5569,6.5575,6.559,6.5591,6.5828,6.5829,0,0,6.5284,6.5287,6.5353,6.5369,6.5354,6.5356,6.5364,6.549,6.5516,6.5564,6.5573,6.5578,6.5591,6.5592,6.5826,6.5828,0,0,0,6.5268,6.5282,6.5307,6.5363,6.5384,6.536,6.5369,6.5511,6.5518,6.5575,6.558,6.5592,6.5594,6.5825,6.5827,6.5896,0,0,0,6.5264,6.5273,6.5304,6.5307,6.5382,6.5449,6.5386,6.551,6.5524,6.5579,6.5592,6.5596,6.5823,6.5826,6.5891,6.5928,0,0,0,6.5253,6.5272,6.5291,6.5307,6.5359,6.5447,6.5462,6.5513,6.5527,6.559,6.5596,6.5822,6.5825,6.5887,6.592,6.5992,0,0,0,6.5241,6.535,6.5293,6.5416,6.5358,6.549,6.5461,6.5559,6.5621,6.5593,6.5824,6.5827,6.5885,6.5916,6.5987,6.6052,6.6079,0,0,6.5379,6.5366,6.5439,6.5391,6.5535,6.5472,6.5625,6.5678,6.568,6.5778,6.5784,6.5893,6.592,6.5991,6.6233,6.6255,0,0,0,6.5484,6.5536,6.5573,6.5634,6.5679,6.572,6.575,6.5769,6.5853,6.5732,6.5938,6.5954,6.5995,6.6026,6.6045,6.608,6.5841,6.5841,6.5841,6.5681,6.5681,6.5801,6.5816,6.5875,6.5907,6.5954,6.5986,6.5966,6.6015,6.6043,6.6191,6.6227,6.6241,6.6278,6.6078,6.6079,6.6079,6.6079,6.5884,6.5957,6.5932,6.604,6.6039,6.6128,6.6163,6.6146,6.6229,6.6169,6.6205,6.6139,6.6265,6.6297,6.6084,6.6083,6.6083,6.6082,6.6082,6.6013,6.6048,6.6073,6.6162,6.623,6.6241,6.6323,6.6318,6.6314,6.635,6.638,6.6379,6.6377,6.6365,6.6366,6.6366,6.6367,6.6367,6.6367,6.6136,6.6162,6.6232,6.6292,6.6331,6.6382,6.6416,6.6454,6.6495,6.6485,6.6485,6.6461,6.6279,6.6232,6.6375,6.6374,6.6373,6.6372,6.6371,6.634,6.6294,6.6402,6.6442,6.6512,6.6581,6.6576,6.6654,6.6685,6.6725,6.6694,6.6561,6.6546,6.6531,6.6493,6.6694,6.6694,6.6694,6.6694,6.6448,6.6442,6.6553,6.6617,6.6679,6.6686,6.6808,6.6837,6.6858,6.6877,6.6847,6.6797,6.6782,6.6776,6.6756,6.672,6.6975,6.6975,6.6975,6.6574,6.6574,6.6679,6.6701,6.6756,6.6803,6.6918,6.6992,6.7006,6.6987,6.6892,6.688,6.6798,6.6772,6.6748,6.6716,6.6651,0,0]}]]